Regional Weather Roundup
Issued by NWS

Home | Current Version | Previous Version | Text Only | Print | Product List | Glossary On
Versions: 1 2 3 4 5 6 7 8 9 10 11 12 13 14 15 16 17 18 19 20 21 22 23 24 25 26 27 28 29 30 31 32 33 34 35 36 37 38 39 40 41 42 43 44 45 46 47 48 49 50
726
ASUS43 KMKX 261400
RWRWI

WISCONSIN REGIONAL WEATHER ROUNDUP
NATIONAL WEATHER SERVICE MILWAUKEE/SULLIVAN WI
900 AM CDT WED APR 26 2017

NOTE: "FAIR" INDICATES FEW OR NO CLOUDS BELOW 12,000 FEET WITH NO
SIGNIFICANT WEATHER AND/OR OBSTRUCTIONS TO VISIBILITY.

WIZ001-002-006>008-014>016-023>028-261500-
NORTHWEST WISCONSIN

CITY           SKY/WX    TMP DP  RH WIND       PRES   REMARKS
SUPERIOR ARPT  LGT SNOW  32  32  99 NE16G26   29.62S WCI  21
ASHLAND        FRZ RAIN  32  30  92 NE25G36   29.59S FOG     WCI  19
HAYWARD        CLOUDY    33  30  88 NE16      29.50F FOG     WCI  23
SIREN          MIX PCPN  34  32  94 NE12G17   29.52F WCI  25
CUMBERLAND     DRIZZLE   32  32 100 NE15      29.46F WCI  22
RICE LAKE      DRIZZLE   36  34  94 N17G24    29.46F WCI  26
CHETEK         RAIN      38  37  97 N6        29.45S WCI  33
LADYSMITH      LGT RAIN  37  36  96 N10       29.45F WCI  30
EAU CLAIRE     NOT AVBL
MENOMONIE      RAIN      39  39 100 N8        29.44S WCI  34
NEW RICHMOND   RAIN      35  35  98 N10       29.47S WCI  28
OSCEOLA        LGT RAIN  35  35 100 N7        29.52F WCI  29
$$

WIZ003>005-009-010-017-018-261500-
NORTH CENTRAL WISCONSIN

CITY           SKY/WX    TMP DP  RH WIND       PRES   REMARKS
MANITOWISH WTR CLOUDY    35  35 100 NE8       29.47F WCI  28
ARBOR VITAE    CLOUDY    40  39  96 NE5       29.46S
WOODRUFF       CLOUDY    40  39  96 NE5       29.46S
RHINELANDER    LGT RAIN  48  48 100 NE6       29.44F FOG
EAGLE RIVER    DRIZZLE   41  41 100 NE9       29.46F
LAND O LAKES   CLOUDY    37  37 100 N6        29.49F WCI  32
PHILLIPS       LGT RAIN  37  37 100 N14       29.44F WCI  28
TOMAHAWK       LGT RAIN  46  45  97 N3        29.43F
MEDFORD        DRIZZLE   48  48  98 NE8       29.39F
MERRILL        LGT RAIN  52  52 100 E8        29.40F
$$

WIZ029-030-035-036-043>047-261500-
CENTRAL WISCONSIN

CITY           SKY/WX    TMP DP  RH WIND       PRES   REMARKS
WAUSAU         CLOUDY    53  52  96 SE7       29.39R FOG
MOSINEE        CLOUDY    54  54 100 E7        29.41R FOG
MARSHFIELD     LGT RAIN  55  53  93 E10       29.37S FOG
STEVENS POINT  CLOUDY    53  53 100 E7        29.40S FOG
WAUPACA        LGT RAIN  58  57  94 SE3       29.41S
WAUTOMA        NOT AVBL
WISC RAPIDS    CLOUDY    58  57  97 E8        29.37F
CAMP DOUGLAS   NOT AVBL
$$

WIZ011>013-019>022-031-037>040-048>050-261500-
NORTHEAST WISCONSIN

CITY           SKY/WX    TMP DP  RH WIND       PRES   REMARKS
ANTIGO         DRIZZLE   50  50 100 E7        29.42F
SHAWANO        CLOUDY    54  51  89 NE6       29.44S
OCONTO         CLOUDY    52  49  90 E6        29.44F
STURGEON BAY   PTSUNNY   59  52  77 SE21G26   29.45F
GREEN BAY      PTSUNNY   61  56  83 SE12      29.41F
MANITOWOC      NOT AVBL
APPLETON       CLOUDY    61  52  72 SE9       29.39F
CLINTONVILLE   HVY RAIN  54  52  94 N3        29.43R
OSHKOSH        CLOUDY    63  54  72 S10       29.39F
$$

WIZ032>034-041-042-053>061-261500-
SOUTHWEST WISCONSIN

CITY           SKY/WX    TMP DP  RH WIND       PRES   REMARKS
LA CROSSE      CLOUDY    57  56  96 NW6       29.35F FOG
SPARTA         LGT RAIN  55  55 100 CALM      29.35F
VIROQUA        CLOUDY    56  56  99 S7        29.36S
BOSCOBEL       CLOUDY    61  58  90 W5        29.37S
PRAIRIE DU CHI CLOUDY    58  57  97 SW6       29.37S
PLATTEVILLE    CLOUDY    59  59 100 SE6       29.36F
$$

WIZ056-057-062-063-064-067-068-261500-
SOUTH CENTRAL WISCONSIN

CITY           SKY/WX    TMP DP  RH WIND       PRES   REMARKS
REEDSBURG      CLOUDY    62  55  77 S6        29.36S
BARABOO/DELLS  CLOUDY    63  53  69 S13       29.37S
LONE ROCK      NOT AVBL
MINERAL POINT  RAIN      61  59  94 S6        29.38F
MADISON        TSTM      59  56  89 S20       29.40R FOG
MIDDLETON      CLOUDY    60  56  85 S14       29.41R
WATERTOWN      CLOUDY    64  57  78 S8        29.40S
MONROE         RAIN      57  55  94 S12       29.41S
JANESVILLE     RAIN      61  59  94 SW12G23   29.40S
$$

WIZ051-052-058>065-066-070>072-261500-
SOUTHEAST WISCONSIN

CITY           SKY/WX    TMP DP  RH WIND       PRES   REMARKS
MILWAUKEE      PTSUNNY   66  56  70 S13       29.41F
WAUKESHA       MOSUNNY   63  54  72 SE12G23   29.41F
MILWAUKEE/TIMM SUNNY     66  52  59 S9G20     29.40F
RACINE         CLOUDY    58  51  78 S10       29.42F
KENOSHA        CLOUDY    67  55  65 S12G22    29.42F
FOND DU LAC    CLOUDY    64  53  67 S9        29.40F
SHEBOYGAN      MOSUNNY   58  53  84 S14G21    29.43F
WEST BEND      CLOUDY    63  55  77 S8        29.42F
JUNEAU         CLOUDY    62  54  74 SE12G18   29.41F
$$

LSZ147-162-261500-
LAKE SUPERIOR

STATION/POSITION TIME  TEMP    WIND        PRES    WAVE
                       AIR SEA DIR/SP/G            HT/PER
                 (UTC) (F)     (DEG/KT/KT) (MB)    (FT/S)
DEVILS ISLAND    1300   32      40/ 31/ 35 1004.4F
PORT WING        1340   33      40/ 35/ 46 1002.7F
SAXON HARBOR     1330   34      40/ 27/ 33 1001.0F
$$

LMZ867-665-643>646-261500-
LAKE MICHIGAN

STATION/POSITION TIME  TEMP    WIND        PRES    WAVE
                       AIR SEA DIR/SP/G            HT/PER
                 (UTC) (F)     (DEG/KT/KT) (MB)    (FT/S)
CHAMBERS ISLAND  1340   42      10/  8/  9  998.0F
N MID LAKE BUOY  1250   42 37  100/ 12/ 14  999.8F   2/ 4
NORTHPORT PIER   1340   46      70/  8/  9  998.6F
KEWAUNEE LAKESHO 1330   49     170/ 11/ 12  997.8F
SHEBOYGAN LAKESH 1300   47     180/ 11/ 12  997.8S
PORT WASHINGTON  1340   50     170/  5/  8  998.3F
MILWAUKEE LAKESH 1330   50     140/ 15/ 16   N/A
S MID LAKE BUOY  1250   48 41  130/ 14/ 14  999.3R   2/ 4
KENOSHA   LAKESH 1300   52     170/ 16/ 18  998.3
$$

TC  - TEMPERATURE IN CELSIUS
VSB - VISIBILITY IN STATUTE MILES
WCI - WIND CHILL INDEX
HX  - HEAT INDEX





USA.gov is the U.S. government's official web portal to all federal, state and local government web resources and services.